This is the latest recevied weather packets stored in our database for station/object K9COE-11. If no packets are shown the sender has not sent any weather packets the latest 1 day(s).
| Time | Temp. | Humidity | Pressure | Rain* | Wind** | Luminosity | Snow |
|---|---|---|---|---|---|---|---|
| 1778117940 | 19.44° C | 56% | - | 0 mm | - | - | - |
| 1778117682 | 19.44° C | 56% | - | 0 mm | - | - | - |
| 1778117180 | 19.44° C | 55% | - | 0 mm | - | - | - |
| 1778117051 | 20° C | 54% | - | 0 mm | - | - | - |
| 1778116922 | 20° C | 54% | - | 0 mm | - | - | - |
| 1778116147 | 20° C | 54% | - | 0 mm | - | - | - |
| 1778115885 | 20° C | 54% | - | 0 mm | - | - | - |
| 1778115633 | 20° C | 52% | - | 0 mm | - | - | - |
| 1778115251 | 20.56° C | 51% | - | 0 mm | - | - | - |
| 1778114488 | 20.56° C | 52% | - | 0 mm | - | - | - |
| 1778114242 | 21.11° C | 52% | - | 0 mm | - | - | - |
| 1778114113 | 20.56° C | 53% | - | 0 mm | - | - | - |
| 1778113854 | 20.56° C | 53% | - | 0 mm | - | - | - |
| 1778113344 | 21.11° C | 52% | - | 0 mm | - | - | - |
| 1778113087 | 21.11° C | 52% | - | 0 mm | - | - | - |
| 1778109013 | 22.22° C | 50% | - | 0 mm | - | - | - |
| 1778108384 | 22.22° C | 49% | - | 0 mm | - | - | - |
| 1778107873 | 22.22° C | 48% | - | 0 mm | - | - | - |
| 1778106974 | 22.22° C | 46% | - | 0 mm | - | - | - |
| 1778101612 | 22.78° C | 50% | - | 0 mm | - | - | - |
| 1778099061 | 22.22° C | 46% | - | 0 mm | - | - | - |
| 1778098938 | 22.22° C | 46% | - | 0 mm | - | - | - |
| 1778096141 | 22.78° C | 43% | - | 0 mm | - | - | - |
| 1778096012 | 22.78° C | 43% | - | 0 mm | - | - | - |
| 1778095639 | 22.22° C | 43% | - | 0 mm | - | - | - |
* Rain latest 24 hours (hover to see other rain measurements)
** Current wind speed in m/s (hover to see current wind gust speed)